Location: Roland
(31.1349°N, 85.4372°W)
Time: 18:46:01
(UTC+00:00)

SR - Pass Details

Date: 14 April 2021
Orbit: 573 x 882 km, 66.7° (Epoch: 12 May)

Event Time Altitude Azimuth Distance (km) Brightness Sun altitude
Rises 13:00:18 0° 175° (S) 3,167 ? 21.7°
Reaches altitude 10° 13:02:53 10° 163° (SSE) 2,299 ? 22.2°
Maximum altitude 13:07:20 27° 106° (ESE) 1,493 ? 23.2°
Drops below altitude 10° 13:12:03 10° 50° (NE) 2,462 ? 24.2°
Sets 13:14:54 0° 39° (NE) 3,435 ? 24.8°
